This demonstration page uses our WeatherBlox Daily Observations layout. Learn more.

Hourly Observations for October 9, 2017

Temp ( °F °C ) Dew Point ( °F °C ) Humidity (%) Winds ( mph kmh ) Pressure ( in mb ) Visibility ( mi km ) Precip ( " mm )
12:54 am 00:54 Clear 57 13.9 42 5.6 58 58 NNE 14 22 29.82 1010 10 16.0934 0 0
1:54 am 01:54 Clear 56 13.3 41 5 57 57 N 13 20 29.84 1011 10 16.0934 0 0
2:54 am 02:54 Clear 53 11.7 40 4.4 61 61 N 17 28 29.87 1011 10 16.0934 0 0
3:54 am 03:54 Clear 53 11.7 38 3.3 57 57 N 15 24 29.88 1012 10 16.0934 0 0
4:54 am 04:54 Clear 52 11.1 38 3.3 59 59 NNE 13 20 29.88 1012 10 16.0934 0 0
5:54 am 05:54 Clear 51 10.6 38 3.3 61 61 NNE 13 20 29.92 1013 10 16.0934 0 0
6:54 am 06:54 Cloudy 52 11.1 38 3.3 59 59 NNE 17 28 29.94 1014 10 16.0934 0 0
7:54 am 07:54 Cloudy 52 11.1 38 3.3 59 59 N 16 26 29.96 1015 10 16.0934 0 0
8:54 am 08:54 Mostly Cloudy 54 12.2 38 3.3 55 55 NNE 18 30 30.01 1016 10 16.0934 0 0
9:54 am 09:54 Cloudy 55 12.8 38 3.3 53 53 NNE 24 39 30.04 1017 10 16.0934 0 0
10:54 am 10:54 Cloudy 55 12.8 37 2.8 51 51 NNE 26 43 30.04 1017 10 16.0934 0 0
11:54 am 11:54 Cloudy 55 12.8 37 2.8 51 51 N 20 31 30.09 1019 10 16.0934 0 0
12:54 pm 12:54 Cloudy 56 13.3 38 3.3 51 51 N 25 41 30.09 1019 10 16.0934 0 0.0254
1:54 pm 13:54 Cloudy 57 13.9 37 2.8 47 47 NNE 21 33 30.09 1019 10 16.0934 0 0
2:54 pm 14:54 Cloudy 56 13.3 38 3.3 51 51 NNE 28 44 30.07 1018 10 16.0934 0 0
3:54 pm 15:54 Cloudy 55 12.8 38 3.3 53 53 N 26 43 30.09 1019 10 16.0934 0 0
4:54 pm 16:54 Cloudy 53 11.7 36 2.2 52 52 N 24 39 30.09 1019 10 16.0934 0 0
5:54 pm 17:54 Cloudy 52 11.1 33 0.6 49 49 N 28 44 30.11 1020 10 16.0934 0 0
6:54 pm 18:54 Cloudy 48 8.9 34 1.1 58 58 N 28 44 30.16 1021 10 16.0934 0 0
7:54 pm 19:54 Cloudy 47 8.3 36 2.2 66 66 N 23 37 30.19 1022 10 16.0934 0 0
8:54 pm 20:54 Cloudy with Nearby Thunderstorms 44 6.7 39 3.9 83 83 N 22 35 30.22 1023 10 16.0934 0.02 0.508
9:03 pm 21:03 Cloudy 44 6.7 39 3.9 83 83 N 20 31 30.24 1024 10 16.0934 0 0.0254
9:54 pm 21:54 Cloudy 44 6.7 39 3.9 83 83 NNE 20 31 30.22 1023 10 16.0934 0.03 0.762
10:54 pm 22:54 Cloudy with Light Thunderstorms 43 6.1 38 3.3 82 82 N 18 30 30.24 1024 7 11.26538 0 0.0254
11:30 pm 23:30 Cloudy with Light Rain 42 5.6 38 3.3 85 85 N 20 31 30.3 1026 10 16.0934 0.04 1.016
11:54 pm 23:54 Cloudy 42 5.6 38 3.3 85 85 N 20 31 30.23 1024 10 16.0934 0.04 1.016

Powered by AerisWeather